This demonstration page uses our WeatherBlox Daily Observations layout. Learn more.

Left ArrowRight Arrow

Hourly Observations for March 10, 2016

Temp ( °F °C ) Dew Point ( °F °C ) Humidity (%) Winds ( mph kmh ) Pressure ( in mb ) Visibility ( mi km ) Precip ( " mm )
12:54 am 00:54 Clear 37 2.8 31 -0.6 79 79 N 7 11 30.08 1019 10 16 0.00 0.00
1:54 am 01:54 Clear 39 3.9 32 0 76 76 Calm 30.11 1020 10 16 0.00 0.00
2:54 am 02:54 Clear 39 3.9 33 0.6 79 79 Calm 30.11 1020 10 16 0.00 0.00
3:54 am 03:54 Clear 36 2.2 31 -0.6 82 82 SE 6 9 30.08 1019 10 16 0.00 0.00
4:54 am 04:54 Mostly Clear 39 3.9 35 1.7 86 86 SSE 9 15 30.07 1018 10 16 0.00 0.00
5:54 am 05:54 Mostly Cloudy 41 5 35 1.7 79 79 NNW 6 9 30.10 1019 10 16 0.00 0.00
6:54 am 06:54 Mostly Sunny 36 2.2 32 0 86 86 Calm 30.14 1021 10 16 0.00 0.00
7:54 am 07:54 Cloudy 44 6.7 38 3.3 79 79 S 6 9 30.15 1021 8 13 0.00 0.00
8:54 am 08:54 Partly Cloudy 50 10 39 3.9 66 66 W 5 7 30.15 1021 10 16 0.00 0.00
9:54 am 09:54 Sunny 55 12.8 40 4.4 57 57 NNW 5 7 30.16 1021 10 16 0.00 0.00
10:54 am 10:54 Sunny 60 15.6 40 4.4 47 47 ENE 3 6 30.14 1021 10 16 0.00 0.00
11:54 am 11:54 Sunny 64 17.8 41 5 43 43 Calm 30.13 1020 10 16 0.00 0.00
12:54 pm 12:54 Sunny 66 18.9 41 5 40 40 VRB 3 6 30.12 1020 10 16 0.00 0.00
1:54 pm 13:54 Sunny 67 19.4 40 4.4 37 37 Calm 30.10 1019 10 16 0.00 0.00
2:54 pm 14:54 Sunny 68 20 40 4.4 36 36 E 5 7 30.08 1019 10 16 0.00 0.00
3:54 pm 15:54 Sunny 69 20.6 40 4.4 35 35 SE 6 9 30.07 1018 10 16 0.00 0.00
4:54 pm 16:54 Mostly Sunny 69 20.6 40 4.4 35 35 ENE 3 6 30.07 1018 10 16 0.00 0.00
5:54 pm 17:54 Sunny 63 17.2 40 4.4 43 43 NE 8 13 30.08 1019 10 16 0.00 0.00
6:54 pm 18:54 Clear 58 14.4 39 3.9 50 50 ENE 10 17 30.11 1020 10 16 0.00 0.00
7:54 pm 19:54 Clear 53 11.7 39 3.9 59 59 ENE 8 13 30.13 1020 10 16 0.00 0.00
8:54 pm 20:54 Cloudy 56 13.3 39 3.9 53 53 ENE 5 7 30.16 1021 10 16 0.00 0.00
9:54 pm 21:54 Mostly Cloudy 53 11.7 39 3.9 59 59 N 5 7 30.17 1022 10 16 0.00 0.00
10:54 pm 22:54 Clear 47 8.3 37 2.8 69 69 NNW 3 6 30.18 1022 10 16 0.00 0.00
11:54 pm 23:54 Clear 47 8.3 37 2.8 69 69 N 6 9 30.17 1022 10 16 0.00 0.00

Powered by AerisWeather